Tracking 27107 objects as of 21-Mar-2023
HD Live streaming from Space Station
objects crossing your sky now

STARLINK-3700

Track STARLINK-3700 now!
10-day predictions
STARLINK-3700 is classified as:


NORAD ID: 51956
Int'l Code: 2022-025A
Perigee: 548.3 km
Apogee: 550.3 km
Inclination: 53.2 °
Period: 95.5 minutes
Semi major axis: 6920 km
RCS: Unknown
Launch date: March 9, 2022
Source: United States (US)
Launch site: AIR FORCE EASTERN TEST RANGE (AFETR)
Your satellite tracking list
Your tracking list is empty




NASA's NSSDC Master Catalog

Two Line Element Set (TLE):
1 51956U 22025A   23079.67875002  .00003125  00000-0  21886-3 0  9992
2 51956  53.1999 220.0018 0001433  95.9468 264.1687 15.08051088 57393
Source of the keplerian elements: AFSPC